Regional Weather Roundup
Issued by NWS

Home | Current Version | Previous Version | Graphics & Text | Print | Product List | Glossary On
Versions: 1 2 3 4 5 6 7 8 9 10 11 12 13 14 15 16 17 18 19 20 21 22 23 24 25 26 27 28 29 30 31 32 33 34 35 36 37 38 39 40 41 42 43 44 45 46 47 48 49 50
000
ASUS43 KMPX 271310
RWRMN
WEATHER ROUNDUP FOR MINNESOTA
NATIONAL WEATHER SERVICE TWIN CITIES/CHANHASSEN MN
800 AM CDT MON MAR 27 2017


NOTE: "FAIR" INDICATES FEW OR NO CLOUDS BELOW 12,000 FEET WITH NO
SIGNIFICANT WEATHER AND/OR OBSTRUCTIONS TO VISIBILITY. N/A MEANS
CURRENT SKY AND/OR WEATHER CONDITIONS ARE NOT AVAILABLE.

MNZ060>063-068>070-271400-
   Twin Cities Metro

CITY           SKY/WX    TMP DP  RH WIND       PRES   REMARKS
TWIN CITIES    CLOUDY    39  34  82 N6        29.97R
ST PAUL        CLOUDY    38  36  92 N5        29.98S
CRYSTAL        CLOUDY    39  33  79 N3        29.96R
BLAINE         CLOUDY    39  37  93 CALM      29.97R
LAKEVILLE      CLOUDY    36  36 100 CALM      29.96F
EDEN PRAIRIE   CLOUDY    40  35  83 N3        29.96R
SOUTH ST PAUL  CLOUDY    38  36  93 CALM      29.97S
LAKE ELMO      CLOUDY    36  36 100 CALM      29.98S
$$
MNZ001>005-007-008-013>017-022>024-027-028-271400-
   Northwest Minnesota

CITY           SKY/WX    TMP DP  RH WIND       PRES   REMARKS
BEMIDJI        FOG       30  30 100 CALM      29.97R VSB 1/2
HALLOCK        FOG       30  28  93 CALM      30.00R VSB<1/4
ROSEAU         CLEAR     28  25  86 CALM      29.98S HAZE
WARROAD        PTCLDY    27  23  86 CALM      29.99R FOG
THIEF RVR FALL   N/A     30  28  93 MISG        N/A
CROOKSTON      FOG       34  34 100 CALM      30.00S VSB<1/4
FOSSTON        MOCLDY    28  27  93 CALM      29.98R FOG
DETROIT LAKES  PTCLDY    34  34 100 CALM      29.97R FOG
MOORHEAD       CLEAR     32  30  93 E3        29.98S FOG
PARK RAPIDS    CLOUDY    35  30  82 CALM      29.95R
MAHNOMEN       PTSUNNY   31  31  99 CALM      29.97S FOG
$$
MNZ006-009>011-018-025>026-271400-
   North Central Minnesota

CITY           SKY/WX    TMP DP  RH WIND       PRES   REMARKS
BAUDETTE       FOG       28  26  92 CALM      29.97R VSB<1/4
FLAG ISLAND    PTCLDY    28  27  93 NW6       29.98R WCI  22
INTL FALLS     PTCLDY    27  24  89 CALM      29.97R
WASKISH        PTCLDY    27  27 100 CALM      29.98R
BIG FORK       MOCLDY    30  28  93 CALM      29.97R
LONGVILLE      PTCLDY    34  32  93 CALM      29.96R
GRAND RAPIDS   MOCLDY    33  31  92 CALM      29.98R
CRANE LAKE     PTCLDY    25  25 100 CALM      29.99R
ORR            CLEAR     28  27  93 CALM      29.94S
COOK           PTCLDY    28  27  93 CALM      29.96S
WALKER         CLOUDY    32  30  92 CALM      29.97R
$$
MNZ012-019>021-037-271400-
   Northeast Minnesota

CITY           SKY/WX    TMP DP  RH WIND       PRES   REMARKS
DULUTH         CLOUDY    33  32  96 N8        29.93F WCI  26
ELY            MOSUNNY   28  28 100 CALM      29.95R
HIBBING        MOCLDY    31  30  96 CALM      29.95R
EVELETH        MOCLDY    30  29  96 CALM      29.96R
DULUTH HARBOR  PTCLDY    34  32  93 CALM      29.97S FOG
TWO HARBORS    CLOUDY    36  30  80 CALM      29.92F
SILVER BAY     CLOUDY    34  34 100 CALM      29.92F FOG
GRAND MARAIS     N/A     34  33  96 W5        29.96R WCI  30
G MARAIS ARPRT MOSUNNY   34  28  80 N3        29.93R
$$
MNZ029>031-032-039>041-046>048-054>057-064-271400-
   West Central Minnesota

CITY           SKY/WX    TMP DP  RH WIND       PRES   REMARKS
FERGUS FALLS   PTCLDY    36  36 100 CALM      30.01R FOG
WHEATON        CLOUDY    34  32  93 CALM      29.99S FOG
MORRIS         CLOUDY    34  34 100 CALM      29.96R FOG
ALEXANDRIA     CLOUDY    35  34  96 CALM      29.96R FOG
ELBOW LAKE     CLOUDY    32  32 100 CALM      29.97S FOG
WADENA         CLOUDY    32  32 100 CALM      29.95S FOG
GLENWOOD       CLOUDY    36  34  93 CALM      29.97R
APPLETON       CLOUDY    36  34  93 CALM      29.97R FOG
BENSON         CLOUDY    36  30  80 CALM      29.98S FOG
ORTONVILLE     CLOUDY    36  34  93 E5        29.96S FOG
MADISON        CLOUDY    37  37 100 CALM      29.97R FOG
WILLMAR        FOG       34  34 100 CALM      29.98R VSB 1/4
$$
MNZ033>034-036-042>043-049>051-058-059-271400-
   Central Minnesota

CITY           SKY/WX    TMP DP  RH WIND       PRES   REMARKS
ST CLOUD       MOCLDY    33  33 100 CALM      29.97R
SAUK CENTRE    FAIR      32  32 100 CALM      29.96R FOG
PAYNESVILLE      N/A     32  32 100 CALM      29.97R FOG
AITKIN         MOCLDY    36  30  80 CALM      29.95R
PINE RIVER     DRIZZLE   34  32  93 CALM      29.99S
BRAINERD       MOCLDY    33  31  92 CALM      29.96R
STAPLES        CLOUDY    34  32  93 CALM      29.95F
LONG PRAIRIE   FAIR      32  32 100 CALM      29.96R FOG
LITTLE FALLS   CLOUDY    32  30  93 CALM      29.97R FOG
LITCHFIELD     MOCLDY    37  36  93 CALM      29.97S FOG
BUFFALO        CLOUDY    37  35  93 CALM      29.98R
MAPLE LAKE     FOG       34  34 100 CALM      29.98R VSB 1/2
HUTCHINSON     CLOUDY    38  37  99 CALM      29.98S
$$
MNZ037-044-045-052-053-271400-
   East Central Minnesota

CITY           SKY/WX    TMP DP  RH WIND       PRES   REMARKS
PRINCETON      FOG       32  30  93 CALM      29.97R VSB 1/4
MORA           FOG       32  32 100 CALM      29.98R VSB 1/2
CAMBRIDGE      FOG       36  32  87 CALM      29.96R VSB 1/4
RUSH CITY      FOG       32  31  97 CALM      29.98R VSB 1
MOOSE LAKE     PTCLDY    32  32 100 CALM      29.94R FOG
CLOQUET        PTCLDY    32  30  93 NW6       29.94S WCI  26
MCGREGOR       CLOUDY    32  32 100 NW3       29.96R
$$
MNZ071>073-080-081-089-090-097-098-271400-
   Southwest Minnesota

CITY           SKY/WX    TMP DP  RH WIND       PRES   REMARKS
MONTEVIDEO     CLOUDY    36  36 100 CALM      29.98S FOG
GRANITE FALLS  CLOUDY    37  36  96 NE3       29.98S FOG
CANBY          MOCLDY    35  35  99 CALM      29.97R FOG
MARSHALL       CLOUDY    39  37  92 CALM      29.97R
REDWOOD FALLS  CLOUDY    40  35  83 CALM      29.97R
OLIVIA         PTCLDY    36  34  93 CALM      29.96S FOG
PIPESTONE      CLOUDY    36  34  93 CALM      29.95R FOG
WINDOM         CLOUDY    39  37  93 N6        29.96S
WORTHINGTON    CLOUDY    35  34  96 CALM      29.96S
JACKSON        CLOUDY    37  37 100 CALM      29.96R FOG
TRACY          CLOUDY    41  38  91 CALM      29.97R
SLAYTON        CLOUDY    37  36  95 CALM      29.96S
$$
MNZ065>067-074>077-082>085-091>093-271400-
   South Central Minnesota

CITY           SKY/WX    TMP DP  RH WIND       PRES   REMARKS
MANKATO        CLOUDY    38  36  92 N6        29.97S
NEW ULM        CLOUDY    37  36  93 CALM      29.97S
ST JAMES       CLOUDY    37  37 100 CALM      29.97S
FAIRMONT       CLOUDY    38  36  92 N6        29.96S
GLENCOE        CLOUDY    38  38 100 CALM      29.96S
FARIBAULT      CLOUDY    37  36  93 N3        29.96F FOG
OWATONNA       CLOUDY    37  36  93 N7        29.95S FOG
WASECA         CLOUDY    36  36 100 N7        29.96F
ALBERT LEA     FOG       37  37 100 N5        29.94S VSB 1
$$
MNZ078>079-086>088-094>096-271400-
   Southeast Minnesota

CITY           SKY/WX    TMP DP  RH WIND       PRES   REMARKS
ROCHESTER      CLOUDY    37  37 100 N5        29.93F FOG
RED WING       CLOUDY    37  36  93 CALM      29.96S
STANTON        DRIZZLE   37  35  93 N6        29.95F
DODGE CENTER   FOG       37  36  93 N6        29.94S VSB 1/4
WINONA         CLOUDY    37  37 100 NW5       29.95S
AUSTIN         CLOUDY    37  37 100 NW5       29.94S FOG
PRESTON        CLOUDY    37  37  97 N6        29.93F FOG
$$
ABBREVIATIONS USED IN REMARKS
   TC - TEMPERATURES IN CELSIUS
  WCI - WIND CHILL INDEX
   HX - HEAT INDEX
  VSB - VISIBILITY
$$




USA.gov is the U.S. government's official web portal to all federal, state and local government web resources and services.